Terminal Aerodrome Forecast
Issued by NWS Bismarck, ND

Home | Current Version | Previous Version | Text Only | Print | Product List | Glossary Off
Versions: 1 2 3 4 5 6 7 8 9 10 11 12 13 14 15 16 17 18 19 20 21

000
FTUS43 KBIS 142111 AAA
TAFISN
TAF AMD
KISN 142111Z 1421/1518 14014G20KT P6SM VCSH SCT060 BKN120
     FM150000 13010KT P6SM VCSH OVC090
     FM150200 08007KT P6SM VCSH OVC080
     FM150700 14004KT P6SM VCSH OVC080
     FM151100 15004KT P6SM SCT060=

USA.gov is the U.S. government's official web portal to all federal, state and local government web resources and services.